******** Week 151 almanac for PRN-1 ******** ID: 1 Health: 0 Eccentricity: 0.0114607811 Time of Applicability(s): 147456 Orbital Inclination(rad): 0.9869033178 Rate of Right Ascen(r/s): -8.023191341e-09 SQRT(A) (m 1/2): 5153.621094 Right Ascen at Week(rad): -2.16099244 Argument of Perigee(rad): 0.8833673298 Mean Anom(rad): -2.209404589 Af0(s): 0.0003323703735 Af1(s/s): -1.091394e-11 week: 151 ******** Week 151 almanac for PRN-2 ******** ID: 2 Health: 0 Eccentricity: 0.02062511444 Time of Applicability(s): 147456 Orbital Inclination(rad): 0.9652478234 Rate of Right Ascen(r/s): -8.103194673e-09 SQRT(A) (m 1/2): 5153.650391 Right Ascen at Week(rad): -2.250538943 Argument of Perigee(rad): -1.436864375 Mean Anom(rad): -2.0703344 Af0(s): -0.0005147595581 Af1(s/s): 0 week: 151 ******** Week 151 almanac for PRN-3 ******** ID: 3 Health: 0 Eccentricity: 0.003897666931 Time of Applicability(s): 147456 Orbital Inclination(rad): 0.9725402243 Rate of Right Ascen(r/s): -8.057478483e-09 SQRT(A) (m 1/2): 5153.624512 Right Ascen at Week(rad): -1.125609711 Argument of Perigee(rad): 0.9537278378 Mean Anom(rad): 2.925615201 Af0(s): -0.0001122974731 Af1(s/s): -1.818989e-11 week: 151 ******** Week 151 almanac for PRN-4 ******** ID: 4 Health: 0 Eccentricity: 0.00172996521 Time of Applicability(s): 147456 Orbital Inclination(rad): 0.9616345796 Rate of Right Ascen(r/s): -7.600316584e-09 SQRT(A) (m 1/2): 5153.606934 Right Ascen at Week(rad): -0.04440042977 Argument of Perigee(rad): -3.039729365 Mean Anom(rad): -0.4451963536 Af0(s): -0.000147720166 Af1(s/s): 3.637979e-12 week: 151 ******** Week 151 almanac for PRN-5 ******** ID: 5 Health: 0 Eccentricity: 0.005860328674 Time of Applicability(s): 147456 Orbital Inclination(rad): 0.9595193639 Rate of Right Ascen(r/s): -8.194627053e-09 SQRT(A) (m 1/2): 5153.623535 Right Ascen at Week(rad): -1.166198408 Argument of Perigee(rad): 1.009173978 Mean Anom(rad): 0.4463157551 Af0(s): -5.803292236e-05 Af1(s/s): 0 week: 151 ******** Week 151 almanac for PRN-6 ******** ID: 6 Health: 0 Eccentricity: 0.002689838409 Time of Applicability(s): 147456 Orbital Inclination(rad): 0.9862861302 Rate of Right Ascen(r/s): -8.000333246e-09 SQRT(A) (m 1/2): 5153.630371 Right Ascen at Week(rad): -2.169263053 Argument of Perigee(rad): -0.9379277608 Mean Anom(rad): -1.900292105 Af0(s): 0.0001710840698 Af1(s/s): 1.091394e-11 week: 151 ******** Week 151 almanac for PRN-7 ******** ID: 7 Health: 0 Eccentricity: 0.01560306549 Time of Applicability(s): 147456 Orbital Inclination(rad): 0.9508487772 Rate of Right Ascen(r/s): -8.091765626e-09 SQRT(A) (m 1/2): 5153.624023 Right Ascen at Week(rad): 0.974117873 Argument of Perigee(rad): -2.288990703 Mean Anom(rad): -2.880245172 Af0(s): 0.0002479588501 Af1(s/s): 3.637979e-12 week: 151 ******** Week 151 almanac for PRN-8 ******** ID: 8 Health: 0 Eccentricity: 0.007353305817 Time of Applicability(s): 147456 Orbital Inclination(rad): 0.9648882966 Rate of Right Ascen(r/s): -7.668890868e-09 SQRT(A) (m 1/2): 5153.685547 Right Ascen at Week(rad): 3.042529179 Argument of Perigee(rad): 0.1157237953 Mean Anom(rad): 0.03980785008 Af0(s): -4.59741333e-05 Af1(s/s): 0 week: 151 ******** Week 151 almanac for PRN-9 ******** ID: 9 Health: 0 Eccentricity: 0.0022149086 Time of Applicability(s): 147456 Orbital Inclination(rad): 0.9546298001 Rate of Right Ascen(r/s): -7.680319916e-09 SQRT(A) (m 1/2): 5153.570801 Right Ascen at Week(rad): -0.09743923866 Argument of Perigee(rad): 1.879488989 Mean Anom(rad): 0.4171513948 Af0(s): -0.0002781058228 Af1(s/s): 3.637979e-12 week: 151 ******** Week 151 almanac for PRN-10 ******** ID: 10 Health: 0 Eccentricity: 0.007541179657 Time of Applicability(s): 147456 Orbital Inclination(rad): 0.9723604609 Rate of Right Ascen(r/s): -8.046049436e-09 SQRT(A) (m 1/2): 5153.632324 Right Ascen at Week(rad): -1.128393796 Argument of Perigee(rad): -2.506703623 Mean Anom(rad): 2.034825141 Af0(s): -0.0002637860107 Af1(s/s): -1.091394e-11 week: 151 ******** Week 151 almanac for PRN-11 ******** ID: 11 Health: 255 Eccentricity: 0.0002756118774 Time of Applicability(s): 147456 Orbital Inclination(rad): 0.9620060906 Rate of Right Ascen(r/s): -8.263201338e-09 SQRT(A) (m 1/2): 5153.723633 Right Ascen at Week(rad): -2.117527903 Argument of Perigee(rad): 2.797115473 Mean Anom(rad): -0.02544962512 Af0(s): -5.9540271e-05 Af1(s/s): 1.091394e-11 week: 151 ******** Week 151 almanac for PRN-12 ******** ID: 12 Health: 0 Eccentricity: 0.008712291717 Time of Applicability(s): 147456 Orbital Inclination(rad): 0.9699036948 Rate of Right Ascen(r/s): -7.794610391e-09 SQRT(A) (m 1/2): 5153.538574 Right Ascen at Week(rad): 2.087323911 Argument of Perigee(rad): 1.250874447 Mean Anom(rad): 2.757105763 Af0(s): -0.0001409370972 Af1(s/s): -7.275958e-12 week: 151 ******** Week 151 almanac for PRN-13 ******** ID: 13 Health: 0 Eccentricity: 0.005803585052 Time of Applicability(s): 147456 Orbital Inclination(rad): 0.9690827754 Rate of Right Ascen(r/s): -7.566029441e-09 SQRT(A) (m 1/2): 5153.632812 Right Ascen at Week(rad): 0.05554613345 Argument of Perigee(rad): 0.9525713601 Mean Anom(rad): -0.5075203152 Af0(s): 0.0002125361572 Af1(s/s): 7.275958e-12 week: 151 ******** Week 151 almanac for PRN-14 ******** ID: 14 Health: 0 Eccentricity: 0.001482963562 Time of Applicability(s): 147456 Orbital Inclination(rad): 0.9532995512 Rate of Right Ascen(r/s): -8.034620388e-09 SQRT(A) (m 1/2): 5153.589844 Right Ascen at Week(rad): 2.05581289 Argument of Perigee(rad): 3.022824492 Mean Anom(rad): 2.817064713 Af0(s): -7.009171143e-05 Af1(s/s): -3.637979e-12 week: 151 ******** Week 151 almanac for PRN-15 ******** ID: 15 Health: 0 Eccentricity: 0.01393413544 Time of Applicability(s): 147456 Orbital Inclination(rad): 0.9304696027 Rate of Right Ascen(r/s): -7.943188008e-09 SQRT(A) (m 1/2): 5153.697266 Right Ascen at Week(rad): -0.2037850035 Argument of Perigee(rad): 1.077748462 Mean Anom(rad): -0.9478162444 Af0(s): -6.330864258e-05 Af1(s/s): 3.637979e-12 week: 151 ******** Week 151 almanac for PRN-16 ******** ID: 16 Health: 0 Eccentricity: 0.01279020309 Time of Applicability(s): 147456 Orbital Inclination(rad): 0.9698497658 Rate of Right Ascen(r/s): -7.771752296e-09 SQRT(A) (m 1/2): 5153.556152 Right Ascen at Week(rad): 2.105939532 Argument of Perigee(rad): 0.7119116456 Mean Anom(rad): 0.9021140282 Af0(s): -0.0003753298096 Af1(s/s): -3.637979e-12 week: 151 ******** Week 151 almanac for PRN-17 ******** ID: 17 Health: 0 Eccentricity: 0.01356315613 Time of Applicability(s): 147456 Orbital Inclination(rad): 0.9800363569 Rate of Right Ascen(r/s): -7.520313251e-09 SQRT(A) (m 1/2): 5153.729004 Right Ascen at Week(rad): 3.124574681 Argument of Perigee(rad): -1.495239909 Mean Anom(rad): -0.04733731389 Af0(s): 0.0004589876587 Af1(s/s): 3.637979e-12 week: 151 ******** Week 151 almanac for PRN-18 ******** ID: 18 Health: 0 Eccentricity: 0.002113342285 Time of Applicability(s): 147456 Orbital Inclination(rad): 0.9706946536 Rate of Right Ascen(r/s): -8.194627053e-09 SQRT(A) (m 1/2): 5153.566406 Right Ascen at Week(rad): -2.153372345 Argument of Perigee(rad): 3.093179382 Mean Anom(rad): -1.988004647 Af0(s): 0.0001816355103 Af1(s/s): -7.275958e-12 week: 151 ******** Week 151 almanac for PRN-19 ******** ID: 19 Health: 0 Eccentricity: 0.008999824524 Time of Applicability(s): 147456 Orbital Inclination(rad): 0.9788019818 Rate of Right Ascen(r/s): -7.531742299e-09 SQRT(A) (m 1/2): 5153.649902 Right Ascen at Week(rad): -3.11376903 Argument of Perigee(rad): 2.013110849 Mean Anom(rad): 2.370104806 Af0(s): 9.873133545e-05 Af1(s/s): 3.637979e-12 week: 151 ******** Week 151 almanac for PRN-20 ******** ID: 20 Health: 0 Eccentricity: 0.005117416382 Time of Applicability(s): 147456 Orbital Inclination(rad): 0.9416988215 Rate of Right Ascen(r/s): -8.434637051e-09 SQRT(A) (m 1/2): 5153.701172 Right Ascen at Week(rad): -1.280513308 Argument of Perigee(rad): -3.13925236 Mean Anom(rad): -1.209767807 Af0(s): 0.0004084914795 Af1(s/s): 0 week: 151 ******** Week 151 almanac for PRN-21 ******** ID: 21 Health: 0 Eccentricity: 0.02458333969 Time of Applicability(s): 147456 Orbital Inclination(rad): 0.9595133718 Rate of Right Ascen(r/s): -8.114623721e-09 SQRT(A) (m 1/2): 5153.525391 Right Ascen at Week(rad): -2.25225793 Argument of Perigee(rad): -0.9955494122 Mean Anom(rad): 0.1518925606 Af0(s): 0.0001251099365 Af1(s/s): 0 week: 151 ******** Week 151 almanac for PRN-22 ******** ID: 22 Health: 0 Eccentricity: 0.01298522949 Time of Applicability(s): 147456 Orbital Inclination(rad): 0.9617843824 Rate of Right Ascen(r/s): -7.634603726e-09 SQRT(A) (m 1/2): 5153.619141 Right Ascen at Week(rad): 0.003901239715 Argument of Perigee(rad): -1.870720656 Mean Anom(rad): -0.158706716 Af0(s): 0.0001740987671 Af1(s/s): 7.275958e-12 week: 151 ******** Week 151 almanac for PRN-23 ******** ID: 23 Health: 0 Eccentricity: 0.002000808716 Time of Applicability(s): 147456 Orbital Inclination(rad): 0.9673989918 Rate of Right Ascen(r/s): -8.126052768e-09 SQRT(A) (m 1/2): 5153.653809 Right Ascen at Week(rad): -1.153325853 Argument of Perigee(rad): 2.982723777 Mean Anom(rad): -2.944763745 Af0(s): -2.261022949e-06 Af1(s/s): -3.637979e-12 week: 151 ******** Week 151 almanac for PRN-24 ******** ID: 24 Health: 0 Eccentricity: 0.01235771179 Time of Applicability(s): 147456 Orbital Inclination(rad): 0.9344064206 Rate of Right Ascen(r/s): -8.228914196e-09 SQRT(A) (m 1/2): 5153.62793 Right Ascen at Week(rad): 0.8911286135 Argument of Perigee(rad): 0.8098602138 Mean Anom(rad): -1.914441355 Af0(s): 0.0002147971802 Af1(s/s): -3.637979e-12 week: 151 ******** Week 151 almanac for PRN-25 ******** ID: 25 Health: 0 Eccentricity: 0.01054096222 Time of Applicability(s): 147456 Orbital Inclination(rad): 0.9573082744 Rate of Right Ascen(r/s): -7.988904198e-09 SQRT(A) (m 1/2): 5153.645508 Right Ascen at Week(rad): 2.010415148 Argument of Perigee(rad): 0.9845007058 Mean Anom(rad): 2.492809038 Af0(s): 0.0002306243408 Af1(s/s): 3.637979e-12 week: 151 ******** Week 151 almanac for PRN-26 ******** ID: 26 Health: 0 Eccentricity: 0.006910324097 Time of Applicability(s): 147456 Orbital Inclination(rad): 0.9381275224 Rate of Right Ascen(r/s): -8.206056101e-09 SQRT(A) (m 1/2): 5153.64209 Right Ascen at Week(rad): 1.963154233 Argument of Perigee(rad): 0.3755290581 Mean Anom(rad): 1.838578964 Af0(s): 0.000147720166 Af1(s/s): 3.637979e-12 week: 151 ******** Week 151 almanac for PRN-27 ******** ID: 27 Health: 0 Eccentricity: 0.01031589508 Time of Applicability(s): 147456 Orbital Inclination(rad): 0.973594836 Rate of Right Ascen(r/s): -7.588887536e-09 SQRT(A) (m 1/2): 5153.612305 Right Ascen at Week(rad): 3.062052231 Argument of Perigee(rad): 0.6435697305 Mean Anom(rad): 0.0101131878 Af0(s): 0.0001085291016 Af1(s/s): 1.455192e-11 week: 151 ******** Week 151 almanac for PRN-29 ******** ID: 29 Health: 0 Eccentricity: 0.001872062683 Time of Applicability(s): 147456 Orbital Inclination(rad): 0.9820556988 Rate of Right Ascen(r/s): -7.508884204e-09 SQRT(A) (m 1/2): 5153.708984 Right Ascen at Week(rad): 3.137606777 Argument of Perigee(rad): 2.243184374 Mean Anom(rad): 0.1439095688 Af0(s): -0.000383620227 Af1(s/s): -3.637979e-12 week: 151 ******** Week 151 almanac for PRN-30 ******** ID: 30 Health: 0 Eccentricity: 0.005560398102 Time of Applicability(s): 147456 Orbital Inclination(rad): 0.9360003225 Rate of Right Ascen(r/s): -8.263201338e-09 SQRT(A) (m 1/2): 5153.505371 Right Ascen at Week(rad): 0.9870477281 Argument of Perigee(rad): -2.739515168 Mean Anom(rad): -2.834469927 Af0(s): -0.0004077378052 Af1(s/s): -3.637979e-12 week: 151 ******** Week 151 almanac for PRN-31 ******** ID: 31 Health: 0 Eccentricity: 0.01044845581 Time of Applicability(s): 147456 Orbital Inclination(rad): 0.955049248 Rate of Right Ascen(r/s): -8.046049436e-09 SQRT(A) (m 1/2): 5153.631836 Right Ascen at Week(rad): 0.9922676071 Argument of Perigee(rad): 0.3792288131 Mean Anom(rad): 2.948532784 Af0(s): -0.0001318930054 Af1(s/s): 0 week: 151 ******** Week 151 almanac for PRN-32 ******** ID: 32 Health: 0 Eccentricity: 0.005695343018 Time of Applicability(s): 147456 Orbital Inclination(rad): 0.9584827284 Rate of Right Ascen(r/s): -7.657461821e-09 SQRT(A) (m 1/2): 5153.529785 Right Ascen at Week(rad): -0.08618118288 Argument of Perigee(rad): -2.333284398 Mean Anom(rad): 0.6342913189 Af0(s): -6.029394531e-05 Af1(s/s): -7.275958e-12 week: 151